Flag for Japan Weather past 2 weeks in Kitakyushu, Japan

Now
79 °F

Partly sunny.


Feels Like: 80 °F
Forecast: 71 / 77 °F
Wind: 2 mph from North

Location: Kitakyushu Airport

Current Time: Sep 17, 2014 at 12:37:46 PM

Latest Report: Sep 17, 2014 at 12:00 PM


Visibility: N/A

Pressure: 29.95 "Hg

Humidity: 58%

Dew point: 63 °F

Location of KitakyushuLocation

Historic Weather in Kitakyushu — Graph

°F

Kitakyushu temperature yesterday

Maximum temperature yesterday: 82 °F (at 1:00 PM)
Minimum temperature yesterday: 72 °F (at 3:00 AM)
Average temperature yesterday: 76 °F

Past Weeks' High & Low Weather Summary

 TemperatureHumidityPressure
High86 °F (Sep 8, 1:00 PM)94% (Sep 3, 7:00 PM)29.98 "Hg (Sep 3, 7:00 PM)
Low70 °F (Sep 14, 4:00 AM)40% (Sep 11, 1:00 PM)29.62 "Hg (Sep 8, 2:00 PM)
Average76 °F75%29.83 "Hg
* Reported Sep 2 11:00 AM — Sep 17 11:00 AM, Kitakyushu, Weather by CustomWeather, © 2014

Note: Actual official high and low records may vary slightly from our data, if they occured in-between our weather recording intervals... More about our weather records

Advertising

Kitakyushu weather history for previous 24 hours

 ConditionsComfort  
Time TempWeatherWind HumidityBarometerVisibility
11:00 AM
Sep 17
77 °FPartly sunny.3 mph61%29.95 "HgN/A
10:00 AM75 °FScattered clouds.3 mph61%29.98 "HgN/A
9:00 AM75 °FScattered clouds.7 mph61%29.98 "HgN/A
8:00 AM75 °FBroken clouds.6 mph69%29.98 "HgN/A
7:00 AM73 °FPassing clouds.3 mph74%29.95 "HgN/A
6:00 AM72 °FBroken clouds.6 mph73%29.95 "HgN/A
5:00 AM73 °FPartly cloudy.6 mph74%29.95 "HgN/A
4:00 AM72 °FPartly cloudy.5 mph78%29.95 "HgN/A
3:00 AM73 °FPassing clouds.7 mph74%29.92 "HgN/A
2:00 AM73 °FPassing clouds.7 mph74%29.95 "HgN/A
1:00 AM73 °FPassing clouds.8 mph74%29.95 "HgN/A
12:00 AM73 °FPassing clouds.6 mph74%29.95 "HgN/A
11:00 PM
Sep 16
73 °FPassing clouds.8 mph78%29.95 "HgN/A
10:00 PM73 °FPassing clouds.9 mph74%29.95 "HgN/A
9:00 PM73 °FPassing clouds.12 mph74%29.95 "HgN/A
8:00 PM75 °FPassing clouds.13 mph65%29.92 "HgN/A
7:00 PM75 °FPassing clouds.10 mph69%29.92 "HgN/A
6:00 PM79 °FScattered clouds.13 mph61%29.92 "HgN/A
5:00 PM81 °FScattered clouds.12 mph62%29.89 "HgN/A
4:00 PM82 °FPassing clouds.14 mph58%29.89 "HgN/A
3:00 PM82 °FPassing clouds.3 mph58%29.89 "HgN/A
2:00 PM81 °FPassing clouds.8 mph54%29.89 "HgN/A
1:00 PM82 °FPassing clouds.3 mph51%29.89 "HgN/A
12:00 PM79 °FPassing clouds.3 mph61%29.92 "HgN/A
Weather by CustomWeather, © 2014

See weather overviewHow to use our weather pages